Regional Weather Roundup
Issued by NWS

Home | Current Version | Previous Version | Text Only | Print | Product List | Glossary Off
Versions: 1 2 3 4 5 6 7 8 9 10 11 12 13 14 15 16 17 18 19 20 21 22 23 24 25 26 27 28 29 30 31 32 33 34 35 36 37 38 39 40 41 42 43 44 45 46 47 48 49 50

000
ASUS45 KTFX 120710
RWRMT
MONTANA REGIONAL WEATHER ROUNDUP
NATIONAL WEATHER SERVICE GREAT FALLS MT
1200 AM MST FRI FEB 12 2016

NOTE: "FAIR" INDICATES FEW OR NO CLOUDS BELOW 12000 FEET WITH NO
SIGNIFICANT WEATHER AND/OR OBSTRUCTIONS TO VISIBILITY.

MTZ001>007-043-120800-
WEST OF THE DIVIDE

CITY           SKY/WX    TMP DP  RH WIND       PRES   REMARKS
KALISPELL      CLOUDY    34  30  85 W3        30.23F
MISSOULA       LGT RAIN  37  33  85 CALM      30.27R
BUTTE          CLOUDY    34  30  85 CALM      30.26S
MULLAN PASS    LGT RAIN  34  33  96 S7        30.21F WCI  28
ANACONDA         N/A     39  34  81 SW7       30.25R
DEER LODGE       N/A     36  32  87 NW3       30.26S
HAMILTON         N/A     41  37  87 W3        30.24F
PLAINS           N/A     40  35  82 CALM      30.24R
$$

MTZ008-052>055-120800-
SOUTHWEST MONTANA

CITY           SKY/WX    TMP DP  RH WIND       PRES   REMARKS
BOZEMAN        CLOUDY    35  31  85 CALM      30.25F
DILLON         CLOUDY    38  32  79 SW13      30.25S WCI  30
ENNIS          CLOUDY    41  27  56 S14G23    30.32S
TWIN BRIDGES     N/A     36  28  73 E6        30.21S WCI  31
$$

MTZ009-010-012-014-046-048-049-054-120800-
EAST SLOPES AND CENTRAL MONTANA

CITY           SKY/WX    TMP DP  RH WIND       PRES   REMARKS
CUT BANK       PTCLDY    29  27  92 E3        30.25S
GREAT FALLS    CLOUDY    32  27  81 E5        30.25S
MALMSTROM AFB  CLOUDY    26  25  96 SE7       30.27R WCI  19
HELENA         CLOUDY    38  31  76 SW5       30.24S
CHOTEAU          N/A     32  28  86 CALM      30.26S
CONRAD           N/A     24  24 100 N2        30.25R
$$

MTZ011-013-016-021-045-047-050-051-120800-
NORTH CENTRAL MONTANA

CITY           SKY/WX    TMP DP  RH WIND       PRES   REMARKS
HAVRE          CLOUDY    29  28  96 CALM      30.30R
LEWISTOWN      CLOUDY    34  28  79 S3        30.27R
N BAR RANCH      N/A     37  30  75 NW8       30.28R WCI  31
CHINOOK          N/A     28  28 100 CALM      30.30S
$$

MTZ017>020-022>027-061-062-120800-
NORTHEAST MONTANA

CITY           SKY/WX    TMP DP  RH WIND       PRES   REMARKS
GLASGOW        CLOUDY    28  23  81 E7        30.32R WCI  21
JORDAN           N/A     32  29  88 N5        30.30R
SIDNEY         CLOUDY    23  16  74 NE5       30.36R
WOLF POINT     CLOUDY    25  18  74 E9        30.37R WCI  15
MALTA            N/A    N/A N/A N/A MISG      30.27
PLENTYWOOD       N/A     12   9  85 N8        30.37R WCI   1
POPLAR           N/A     21  18  86 NE7       30.38R WCI  13
SCOBEY           N/A     16   5  61 N9        30.31R WCI   5
$$

MTZ028>42-056>058-120800-
SOUTHCENTRAL AND SOUTHEAST MONTANA

CITY           SKY/WX    TMP DP  RH WIND       PRES   REMARKS
BAKER          CLOUDY    27  22  81 NW5       30.27R
BILLINGS       MOCLDY    37  28  70 CALM      30.26S
LIVINGSTON     CLOUDY    42  24  49 E8        30.24S
MILES CITY     CLOUDY    31  26  82 N3        30.30R
EKALAKA          N/A     26  22  85 NW6       30.20R WCI  19
FORSYTH          N/A     34  30  86 CALM      30.31R
LAUREL           N/A     37  23  57 NW2       30.22R
ROUNDUP          N/A     35  28  76 CALM      30.15S
$$

REGIONAL REPORTS...DAKOTAS

CITY           SKY/WX    TMP DP  RH WIND       PRES   REMARKS
WILLISTON      CLOUDY    19  14  81 N10       30.36R WCI   7
MINOT          LGT SNOW  14   5  67 N10       30.36R WCI   1
DICKINSON      CLOUDY    20  17  88 N7        30.27R WCI  11
BEACH          CLOUDY    21  21 100 N8        30.32R WCI  12
CROSBY         CLOUDY    10   9  92 N12       30.41R WCI  -4
TIOGA          FLURRIES  14  14 100 NE10      30.38R WCI   1
WATFORD CITY   CLOUDY    19  16  86 N6        30.35R WCI  11
BISMARCK       CLOUDY    20  14  77 NW6       30.33R WCI  12
GRAND FORKS    CLEAR      7  -2  66 N13       30.34R WCI  -9
FARGO          CLOUDY    11   4  73 N8        30.32R WCI  -1
BUFFALO SD       N/A     29  24  82 N7        30.19R WCI  22
RAPID CITY     CLOUDY    31  27  85 NE7       30.24S WCI  24
$$

REGIONAL REPORTS...WYOMING/IDAHO/WASHINGTON

CITY           SKY/WX    TMP DP  RH WIND       PRES   REMARKS
GILLETTE       CLOUDY    34  26  72 W10       30.24R WCI  26
SHERIDAN       CLOUDY    38  26  62 W12       30.25S WCI  30
BUFFALO WY     CLOUDY    39  24  55 NW12      30.25S WCI  32
CODY           CLOUDY    39  18  41 SE6       30.24S
YELLOWSTONE LA   N/A     31  24  75 CALM      30.37S
IDAHO FALLS    CLOUDY    27  23  85 N3        30.37S
SALMON         CLOUDY    30  27  86 CALM      30.36S
BOISE          PTCLDY    35  29  78 S3        30.33S
SPOKANE        LGT RAIN  40  38  93 E6        30.22F
$$

REGIONAL REPORTS...ALBERTA

CITY           SKY/WX    TMP DP  RH WIND       PRES   REMARKS
EDMONTON       CLOUDY    16  10  79 E9        30.36F WCI   4
CALGARY        CLOUDY    30  28  93 E13       30.25S FOG     WCI  20
LETHBRIDGE     MOCLDY    28  28 100 NE7       30.28R WCI  21
MEDICINE HAT   CLOUDY    34  30  86 N7        30.31R WCI  28
WATERTON GATE    N/A     34  28  80 NE5         N/A
MILK RIVER       N/A     27  25  93 NW2         N/A
ONEFOUR          N/A     32  30  93 NE7         N/A  WCI  26
$$

REGIONAL REPORTS...SASKATCHEWAN

CITY           SKY/WX    TMP DP  RH WIND       PRES   REMARKS
SWIFT CURRENT  CLOUDY    12  10  92 E13       30.33S WCI  -3
REGINA         CLEAR      3  -2  78 N5        30.44R
SASKATOON      CLEAR      0  -4  85 NE8       30.52R WCI -15
VAL MARIE        N/A     21  19  93 NE9         N/A  WCI  11
ROCKGLEN         N/A     12  10  92 N6          N/A  WCI   3
ASSINIBOIA       N/A     14  10  85 E10         N/A  WCI   1
$$



USA.gov is the U.S. government's official web portal to all federal, state and local government web resources and services.